Northport, AL

5:13 AM CST on December 03, 2016 (GMT -0600)
Tuscaloosa Municipal

Weather History for KTCL - December, 2013

Change the Weather History Date:

Sunday, December 22, 2013

  Actual Average Record
Temperature  
Mean Temperature 64 °F 46 °F  
Max Temperature 73 °F 56 °F 76 °F (1990)
Min Temperature 55 °F 35 °F 7 °F (1989)
Degree Days  
Heating Degree Days 1 19  
Month to date heating degree days 333 383  
Since 1 July heating degree days 800 820  
Growing Degree Days 14 (Base 50)    
Moisture  
Dew Point 56 °F    
Average Humidity 92    
Maximum Humidity 100    
Minimum Humidity 84    
Precipitation  
Precipitation 1.88 in 0.13 in 2.12 in (1968)
Month to date precipitation 5.99 3.43  
Year to date precipitation 49.82 51.41  
Sea Level Pressure  
Sea Level Pressure 29.95 in    
Wind  
Wind Speed 4 mph (SSW)    
Max Wind Speed 21 mph    
Max Gust Speed 29 mph    
Visibility 8 miles    
Events Fog , Rain , Thunderstorm    
T = Trace of Precipitation, MM = Missing Value Source: NWS Daily Summary

Daily Weather History Graph

Daily Weather History Graph

Search for Another Location

Airport or City:

Trip Planner

Search our weather history database for the weather conditions in past years. The results will help you decide how hot, cold, wet, or windy it might be!

Date:

Astronomy

Dec. 22, 2013 Rise Set
Actual Time 6:50 AM CST 4:47 PM CST
Civil Twilight 6:23 AM CST 5:15 PM CST
Nautical Twilight 5:52 AM CST 5:46 PM CST
Astronomical Twilight 5:21 AM CST 6:16 PM CST
Moon 9:45 PM CST (12/22) 9:59 AM CST (12/22)
Length of Visible Light 10h 52m
Length of Day
9h 57m
Waning Gibbous, 76% of the Moon is Illuminated
Dec 22
Waning Gibbous
Dec 25
Last Quarter
Jan 1
New
Jan 7
First Quarter
Jan 15
Full

Hourly Weather History & Observations

Time (CST) Temp. Dew Point Humidity Pressure Visibility Wind Dir Wind Speed Gust Speed Precip Events Conditions
12:33 AM 71.6 °F 69.8 °F 94% 29.77 in 10.0 mi South 16.1 mph 21.9 mph 0.00 in Thunderstorm Overcast
12:53 AM 72.0 °F 69.1 °F 91% 29.75 in 10.0 mi South 16.1 mph 24.2 mph 0.00 in Thunderstorm Overcast
1:10 AM 62.6 °F 60.8 °F 94% 29.81 in 2.5 mi West 13.8 mph 27.6 mph 0.09 in Rain , Thunderstorm Heavy Rain
1:22 AM 62.6 °F 60.8 °F 94% 29.84 in 0.5 mi NW 10.4 mph - 0.74 in Fog , Rain , Thunderstorm Heavy Thunderstorms and Rain
1:34 AM 60.8 °F 57.2 °F 88% 29.84 in 1.0 mi WNW 20.7 mph 28.8 mph 1.04 in Rain , Thunderstorm Heavy Thunderstorms and Rain
1:40 AM 60.8 °F 57.2 °F 88% 29.83 in 2.0 mi WNW 12.7 mph 28.8 mph 1.06 in Rain , Thunderstorm Thunderstorms and Rain
1:49 AM 60.8 °F 57.2 °F 88% 29.83 in 6.0 mi WNW 9.2 mph 20.7 mph 1.06 in Rain , Thunderstorm Light Rain
1:53 AM 60.1 °F 55.9 °F 86% 29.83 in 10.0 mi West 9.2 mph 17.3 mph 1.06 in Rain , Thunderstorm Light Rain
2:03 AM 59.0 °F 55.4 °F 88% 29.85 in 1.8 mi Variable 5.8 mph - 0.11 in Rain , Thunderstorm Heavy Thunderstorms and Rain
2:13 AM 59.0 °F 55.4 °F 88% 29.85 in 3.0 mi Calm Calm - 0.14 in Rain , Thunderstorm Light Thunderstorms and Rain
2:39 AM 57.2 °F 53.6 °F 88% 29.88 in 4.0 mi WNW 5.8 mph - 0.20 in Rain , Thunderstorm Light Rain
2:53 AM 57.9 °F 54.0 °F 87% 29.88 in 6.0 mi Calm Calm - 0.20 in Rain , Thunderstorm Light Rain
3:27 AM 57.2 °F 53.6 °F 88% 29.87 in 7.0 mi Calm Calm - 0.04 in Rain , Thunderstorm Light Rain
3:39 AM 57.2 °F 53.6 °F 88% 29.90 in 1.8 mi West 4.6 mph - 0.16 in Rain , Thunderstorm Heavy Thunderstorms and Rain
3:53 AM 55.9 °F 54.0 °F 93% 29.87 in 2.5 mi Calm Calm - 0.24 in Rain , Thunderstorm Thunderstorms and Rain
4:00 AM 57.2 °F 53.6 °F 88% 29.90 in 4.0 mi SSW 5.8 mph - 0.01 in Rain , Thunderstorm Light Thunderstorms and Rain
4:58 AM 55.4 °F 53.6 °F 94% 29.89 in 2.0 mi SSE 4.6 mph - 0.04 in Rain , Thunderstorm Heavy Thunderstorms and Rain
5:08 AM 55.4 °F 53.6 °F 94% 29.89 in 6.0 mi South 4.6 mph - 0.05 in Rain , Thunderstorm Light Thunderstorms and Rain
5:29 AM 55.4 °F 53.6 °F 94% 29.89 in 8.0 mi Variable 3.5 mph - 0.06 in Rain Light Rain
5:53 AM 55.0 °F 53.1 °F 93% 29.90 in 10.0 mi Calm Calm - 0.06 in   Mostly Cloudy
6:53 AM 55.9 °F 54.0 °F 93% 29.93 in 10.0 mi Calm Calm - N/A   Overcast
7:48 AM 55.4 °F 53.6 °F 94% 29.95 in 10.0 mi East 3.5 mph - 0.00 in Rain Light Rain
7:53 AM 55.9 °F 54.0 °F 93% 29.95 in 10.0 mi Calm Calm - 0.00 in   Overcast
8:53 AM 57.0 °F 55.0 °F 93% 29.99 in 10.0 mi Calm Calm - N/A   Overcast
9:18 AM 57.2 °F 55.4 °F 94% 30.00 in 10.0 mi South 4.6 mph - N/A   Overcast
9:42 AM 57.2 °F 55.4 °F 94% 30.00 in 10.0 mi South 3.5 mph - N/A   Mostly Cloudy
9:53 AM 57.9 °F 55.0 °F 90% 29.99 in 10.0 mi Calm Calm - N/A   Mostly Cloudy
10:02 AM 59.0 °F 55.4 °F 88% 30.00 in 10.0 mi Calm Calm - N/A   Mostly Cloudy
10:32 AM 59.0 °F 55.4 °F 88% 30.00 in 10.0 mi Calm Calm - N/A   Overcast
10:53 AM 59.0 °F 55.9 °F 90% 29.99 in 10.0 mi South 3.5 mph - N/A   Scattered Clouds
11:53 AM 60.1 °F 55.0 °F 83% 29.99 in 10.0 mi SSW 4.6 mph - N/A   Partly Cloudy
12:43 PM 60.8 °F 55.4 °F 82% 29.98 in 10.0 mi South 5.8 mph - N/A   Mostly Cloudy
12:53 PM 57.9 °F 55.9 °F 93% 29.98 in 10.0 mi SSW 4.6 mph - N/A   Mostly Cloudy
1:24 PM 60.8 °F 55.4 °F 82% 29.98 in 10.0 mi SSW 4.6 mph - N/A   Overcast
1:53 PM 61.0 °F 55.0 °F 81% 29.96 in 10.0 mi Calm Calm - N/A   Overcast
2:53 PM 61.0 °F 55.9 °F 83% 29.98 in 10.0 mi South 3.5 mph - N/A   Overcast
3:53 PM 61.0 °F 55.0 °F 81% 30.01 in 10.0 mi South 6.9 mph - N/A   Overcast
4:04 PM 60.8 °F 55.4 °F 82% 30.01 in 10.0 mi South 8.1 mph - N/A   Overcast
4:18 PM 60.8 °F 55.4 °F 82% 30.00 in 10.0 mi SSE 5.8 mph - N/A   Mostly Cloudy
4:53 PM 59.0 °F 55.0 °F 87% 30.04 in 10.0 mi SSW 4.6 mph - N/A   Overcast
5:33 PM 57.2 °F 55.4 °F 94% 30.03 in 10.0 mi Calm Calm - N/A   Mostly Cloudy
5:53 PM 57.9 °F 55.0 °F 90% 30.04 in 10.0 mi SSE 5.8 mph - N/A   Overcast
6:53 PM 57.9 °F 55.0 °F 90% 30.04 in 10.0 mi SSE 4.6 mph - N/A   Overcast
7:53 PM 57.9 °F 55.0 °F 90% 30.07 in 6.0 mi South 6.9 mph - 0.04 in Rain Light Rain
8:53 PM 57.0 °F 55.0 °F 93% 30.08 in 10.0 mi Calm Calm - 0.00 in   Overcast
9:53 PM 55.9 °F 54.0 °F 93% 30.08 in 10.0 mi Calm Calm - 0.02 in   Mostly Cloudy
10:32 PM 55.4 °F 55.4 °F 100% 30.10 in 10.0 mi South 3.5 mph - N/A   Overcast
10:41 PM 55.4 °F 55.4 °F 100% 30.11 in 10.0 mi South 6.9 mph - N/A   Overcast
10:53 PM 55.9 °F 55.0 °F 97% 30.11 in 10.0 mi West 5.8 mph - N/A   Overcast
11:53 PM 55.9 °F 55.0 °F 97% 30.12 in 8.0 mi South 4.6 mph - 0.02 in Rain Light Rain